Location: *
(48.8667°N, 2.3331°E)
Time: 08:47:01
(UTC+00:00)

Cosmos 2061 Rocket - Pass Details

Date: 14 August 2020
Orbit: 966 x 1012 km, 82.9° (Epoch: 23 September)

Event Time Altitude Azimuth Distance (km) Brightness Sun altitude
Exits shadow 20:21:37 13° 107° (ESE) 2,522 5.6 -11.4°
Maximum altitude 20:24:19 16° 78° (ENE) 2,274 5.6 -11.8°
Drops below altitude 10° 20:27:58 10° 41° (NE) 2,717 6.3 -12.3°
Sets 20:31:26 0° 22° (NNE) 3,671 7.2 -12.7°
